• In Denmark
  • List of Countries
  • For 7 days
  • Water Temperature
  • Satellite Maps
  • Weather Map
  • Weather Widgets
  • user-avatar
    Login

    Hourly Weather Rio Branco

    Today, 11 December, Monday

    Time Temperature Precipitation Wind Pressure Humidity
    00:00 +27°C° 3.3 mm 1 mps 743 mmHg 92%
    01:00 +26°C° 3.3 mm 2 mps 743 mmHg 95%
    02:00 +26°C° 3.9 mm 1 mps 743 mmHg 95%
    03:00 +26°C° 3.9 mm 1 mps 743 mmHg 96%
    04:00 +26°C° 3.9 mm 1 mps 743 mmHg 96%
    05:00 +26°C° 7.3 mm 1 mps 743 mmHg 96%
    06:00 +26°C° 7.3 mm 1 mps 744 mmHg 97%
    07:00 +26°C° 7.3 mm 1 mps 745 mmHg 97%
    08:00 +26°C° 1.8 mm 1 mps 745 mmHg 97%
    09:00 +26°C° 1.8 mm 1 mps 745 mmHg 97%
    10:00 +26°C° 1.8 mm 1 mps 745 mmHg 97%
    11:00 +26°C° 1.3 mm 1 mps 744 mmHg 96%
    12:00 +26°C° 1.3 mm 1 mps 744 mmHg 96%
    13:00 +27°C° 1.3 mm 1 mps 743 mmHg 96%
    14:00 +27°C° 1.2 mm 1 mps 743 mmHg 96%
    15:00 +27°C° 1.2 mm 1 mps 742 mmHg 95%
    16:00 +27°C° 1.2 mm 1 mps 742 mmHg 95%
    17:00 +26°C° 0 mm 1 mps 742 mmHg 96%
    18:00 +26°C° 0 mm 1 mps 742 mmHg 97%
    19:00 +25°C° 0 mm 1 mps 742 mmHg 98%
    20:00 +25°C° 0 mm 1 mps 743 mmHg 97%
    21:00 +23°C° 0 mm 0 mps 743 mmHg 97%
    22:00 +22°C° 0 mm 0 mps 744 mmHg 96%
    23:00 +22°C° 0 mm 0 mps 743 mmHg 96%

    Tomorrow, 12 December, Tuesday

    Time Temperature Precipitation Wind Pressure Humidity
    00:00 +22°C° 0 mm 0 mps 743 mmHg 96%
    01:00 +22°C° 0 mm 0 mps 743 mmHg 96%
    02:00 +22°C° 0 mm 0 mps 743 mmHg 96%
    03:00 +21°C° 0 mm 0 mps 743 mmHg 97%
    04:00 +21°C° 0 mm 0 mps 743 mmHg 97%
    05:00 +22°C° 0 mm 0 mps 743 mmHg 94%
    06:00 +23°C° 0 mm 0 mps 744 mmHg 91%
    07:00 +24°C° 0 mm 0 mps 745 mmHg 87%
    08:00 +27°C° 0 mm 0 mps 745 mmHg 78%
    09:00 +29°C° 0 mm 0 mps 745 mmHg 68%
    10:00 +32°C° 0 mm 0 mps 745 mmHg 58%
    11:00 +32°C° 0 mm 0 mps 744 mmHg 56%
    12:00 +32°C° 0 mm 0 mps 743 mmHg 55%
    13:00 +34°C° 0 mm 1 mps 742 mmHg 54%
    14:00 +34°C° 0 mm 1 mps 742 mmHg 55%
    15:00 +34°C° 0 mm 1 mps 741 mmHg 57%
    16:00 +34°C° 0 mm 1 mps 740 mmHg 58%
    17:00 +32°C° 0 mm 1 mps 741 mmHg 65%
    18:00 +30°C° 0 mm 1 mps 742 mmHg 72%
    19:00 +28°C° 0 mm 1 mps 742 mmHg 79%
    20:00 +28°C° 0 mm 1 mps 743 mmHg 82%
    21:00 +27°C° 0 mm 1 mps 743 mmHg 84%
    22:00 +26°C° 0 mm 1 mps 744 mmHg 87%
    23:00 +26°C° 0 mm 1 mps 743 mmHg 89%

    Day after tomorrow, 13 December, Wednesday

    Time Temperature Precipitation Wind Pressure Humidity
    00:00 +25°C° 0 mm 1 mps 743 mmHg 91%
    01:00 +25°C° 0 mm 1 mps 743 mmHg 94%
    02:00 +25°C° 0 mm 1 mps 743 mmHg 95%
    03:00 +25°C° 0 mm 1 mps 743 mmHg 96%
    04:00 +24°C° 0 mm 1 mps 743 mmHg 97%
    05:00 +25°C° 0.2 mm 1 mps 744 mmHg 93%
    06:00 +26°C° 0.2 mm 1 mps 745 mmHg 90%
    07:00 +27°C° 0.2 mm 1 mps 745 mmHg 86%
    08:00 +29°C° 1.2 mm 1 mps 745 mmHg 85%
    09:00 +30°C° 1.2 mm 1 mps 746 mmHg 83%
    10:00 +31°C° 1.2 mm 1 mps 746 mmHg 81%
    11:00 +32°C° 0.4 mm 1 mps 745 mmHg 74%
    12:00 +33°C° 0.4 mm 1 mps 744 mmHg 67%
    13:00 +35°C° 0.4 mm 1 mps 744 mmHg 60%
    14:00 +32°C° 0 mm 0 mps 743 mmHg 59%
    15:00 +32°C° 0 mm 0 mps 743 mmHg 57%
    16:00 +32°C° 0 mm 0 mps 742 mmHg 56%
    17:00 +30°C° 0.2 mm 0 mps 743 mmHg 64%
    18:00 +28°C° 0.2 mm 0 mps 743 mmHg 71%
    19:00 +28°C° 0.2 mm 1 mps 744 mmHg 79%
    20:00 +27°C° 0.3 mm 1 mps 744 mmHg 84%
    21:00 +26°C° 0.3 mm 1 mps 745 mmHg 88%
    22:00 +26°C° 0.3 mm 1 mps 745 mmHg 93%
    23:00 +25°C° 0 mm 1 mps 745 mmHg 94%

    14 December, Thursday

    Time Temperature Precipitation Wind Pressure Humidity
    00:00 +25°C° 0 mm 1 mps 744 mmHg 94%
    01:00 +23°C° 0 mm 0 mps 744 mmHg 95%
    02:00 +23°C° 0 mm 0 mps 744 mmHg 95%
    03:00 +23°C° 0 mm 0 mps 744 mmHg 96%
    04:00 +22°C° 0 mm 0 mps 744 mmHg 96%
    05:00 +23°C° 0 mm 0 mps 745 mmHg 93%
    06:00 +26°C° 0 mm 1 mps 745 mmHg 90%
    07:00 +27°C° 0 mm 1 mps 746 mmHg 87%
    08:00 +29°C° 0.3 mm 1 mps 746 mmHg 81%
    09:00 +31°C° 0.3 mm 1 mps 746 mmHg 76%
    10:00 +32°C° 0.3 mm 1 mps 746 mmHg 70%
    11:00 +33°C° 1.1 mm 1 mps 745 mmHg 70%
    12:00 +33°C° 1.1 mm 1 mps 744 mmHg 70%
    13:00 +33°C° 1.1 mm 1 mps 744 mmHg 70%
    14:00 +33°C° 0.1 mm 1 mps 743 mmHg 70%
    15:00 +32°C° 0.1 mm 1 mps 743 mmHg 70%
    16:00 +32°C° 0.1 mm 1 mps 742 mmHg 69%
    17:00 +30°C° 0.1 mm 1 mps 742 mmHg 75%
    18:00 +29°C° 0.1 mm 1 mps 743 mmHg 81%
    19:00 +27°C° 0.1 mm 1 mps 743 mmHg 87%
    20:00 +27°C° 0.1 mm 1 mps 744 mmHg 87%
    21:00 +27°C° 0.1 mm 1 mps 744 mmHg 87%
    22:00 +26°C° 0.1 mm 1 mps 745 mmHg 88%
    23:00 +26°C° 0.1 mm 1 mps 744 mmHg 89%

    15 December, Friday

    Time Temperature Precipitation Wind Pressure Humidity
    00:00 +26°C° 0.1 mm 1 mps 744 mmHg 90%
    01:00 +25°C° 0.1 mm 1 mps 744 mmHg 91%
    02:00 +25°C° 0.2 mm 1 mps 744 mmHg 93%
    03:00 +25°C° 0.2 mm 1 mps 744 mmHg 94%
    04:00 +25°C° 0.2 mm 1 mps 744 mmHg 96%
    05:00 +26°C° 0 mm 1 mps 744 mmHg 94%
    06:00 +26°C° 0 mm 1 mps 745 mmHg 92%
    07:00 +27°C° 0 mm 1 mps 746 mmHg 90%
    08:00 +28°C° 1.2 mm 1 mps 746 mmHg 90%
    09:00 +29°C° 1.2 mm 1 mps 745 mmHg 89%
    10:00 +30°C° 1.2 mm 1 mps 745 mmHg 89%
    11:00 +31°C° 0.9 mm 1 mps 745 mmHg 85%
    12:00 +31°C° 0.9 mm 1 mps 744 mmHg 82%
    13:00 +31°C° 0.9 mm 1 mps 743 mmHg 79%
    14:00 +31°C° 1.1 mm 1 mps 743 mmHg 81%
    15:00 +31°C° 1.1 mm 1 mps 742 mmHg 84%
    16:00 +30°C° 1.1 mm 1 mps 742 mmHg 86%
    17:00 +29°C° 0.5 mm 1 mps 742 mmHg 90%
    18:00 +28°C° 0.5 mm 1 mps 743 mmHg 93%
    19:00 +26°C° 0.5 mm 1 mps 743 mmHg 96%
    20:00 +26°C° 0.1 mm 1 mps 743 mmHg 96%
    21:00 +26°C° 0.1 mm 1 mps 744 mmHg 97%
    22:00 +25°C° 0.1 mm 1 mps 744 mmHg 97%
    23:00 +25°C° 0.1 mm 1 mps 744 mmHg 97%

    16 December, Saturday

    Time Temperature Precipitation Wind Pressure Humidity
    00:00 +25°C° 0.1 mm 1 mps 743 mmHg 98%
    01:00 +25°C° 0.1 mm 1 mps 743 mmHg 98%
    02:00 +25°C° 0.1 mm 1 mps 743 mmHg 98%
    03:00 +25°C° 0.1 mm 1 mps 743 mmHg 98%
    04:00 +24°C° 0.1 mm 1 mps 743 mmHg 98%
    05:00 +25°C° 0.1 mm 1 mps 743 mmHg 96%
    06:00 +26°C° 0.1 mm 1 mps 744 mmHg 94%
    07:00 +27°C° 0.1 mm 1 mps 745 mmHg 91%
    08:00 +28°C° 0.4 mm 1 mps 745 mmHg 86%
    09:00 +30°C° 0.4 mm 1 mps 745 mmHg 81%
    10:00 +31°C° 0.4 mm 1 mps 745 mmHg 76%
    11:00 +31°C° 1.1 mm 1 mps 744 mmHg 77%
    12:00 +31°C° 1.1 mm 1 mps 743 mmHg 78%
    13:00 +31°C° 1.1 mm 2 mps 742 mmHg 79%
    14:00 +31°C° 0.9 mm 1 mps 742 mmHg 82%
    15:00 +30°C° 0.9 mm 1 mps 741 mmHg 86%
    16:00 +30°C° 0.9 mm 1 mps 741 mmHg 90%
    17:00 +29°C° 0.3 mm 1 mps 741 mmHg 92%
    18:00 +28°C° 0.3 mm 1 mps 742 mmHg 94%
    19:00 +26°C° 0.3 mm 1 mps 742 mmHg 97%
    20:00 +26°C° 0 mm 1 mps 743 mmHg 97%
    21:00 +26°C° 0 mm 1 mps 743 mmHg 97%
    22:00 +26°C° 0 mm 1 mps 744 mmHg 98%
    23:00 +25°C° 0 mm 1 mps 743 mmHg 98%
    Show more